Latest Weather Observations for Mount Boyce

IDN60901

Issued at 2:01 pm EDT Tuesday 28 February 2017 (issued every 10 minutes, with the page automatically refreshed every 10 minutes)

About weather observations | Map of Sydney area stations | Latest observations for Sydney area | Other Formats
Station Details ID: 063292 Name: MOUNT BOYCE AWS Lat: -33.62 Lon: 150.27 Height: 1080.0 m
Data from the previous 72 hours. | See also: Recent months at Mount Boyce
Date/Time
EDT
Temp
°C
App
Temp
°C
Dew
Point
°C
Rel
Hum
%
Delta-T
°C
Wind Press
QNH
hPa
Press
MSL
hPa
Rain since
9am
mm
Dir  Spd
km/h
Gust
km/h
Spd
kts
Gust
kts
28/01:38pm 16.8 16.8 15.3 91 0.9 E 9 19 5 10 - - 2.0
28/01:30pm 16.9 16.9 15.2 90 1.0 E 9 19 5 10 - - 1.6
28/01:28pm 16.9 16.9 15.1 89 1.1 E 9 15 5 8 - - 1.6
28/01:08pm 16.8 16.8 15.3 91 0.9 E 9 15 5 8 - - 1.6
28/01:01pm 17.3 17.7 16.2 93 0.7 E 9 17 5 9 - - 1.6
28/01:00pm 17.3 17.7 16.3 94 0.6 E 9 17 5 9 - - 1.6
28/12:37pm 16.3 16.4 15.5 95 0.5 ENE 9 19 5 10 - - 1.6
28/12:30pm 15.9 16.1 14.8 93 0.7 ENE 7 19 4 10 - - 1.6
28/12:00pm 16.5 16.8 16.0 97 0.3 E 9 20 5 11 - - 1.6
28/11:48am 16.4 16.7 15.9 97 0.3 ENE 9 19 5 10 - - 1.6
28/11:30am 15.7 15.7 15.1 96 0.4 ENE 9 17 5 9 - - 1.4
28/11:00am 15.9 16.2 15.1 95 0.5 E 7 17 4 9 - - 0.0
28/10:59am 15.8 16.0 14.8 94 0.6 E 7 17 4 9 - - 0.0
28/10:30am 15.5 15.0 14.9 96 0.4 E 11 24 6 13 - - 0.0
28/10:05am 15.9 16.1 15.7 99 0.1 ENE 9 19 5 10 - - 0.0
28/10:00am 15.3 15.3 15.1 99 0.1 ENE 9 17 5 9 - - 0.0
28/09:30am 14.7 14.1 14.5 99 0.1 E 11 24 6 13 - - 0.0
28/09:00am 14.5 14.2 14.3 99 0.1 E 9 19 5 10 - - 4.8
28/08:30am 14.2 13.4 14.0 99 0.1 E 11 24 6 13 - - 4.6
28/08:00am 14.0 13.9 13.8 99 0.1 ENE 7 13 4 7 - - 4.4
28/07:30am 14.0 13.5 13.8 99 0.1 E 9 20 5 11 - - 4.2
28/07:00am 14.0 13.5 13.8 99 0.1 E 9 20 5 11 - - 3.2
28/06:30am 13.9 13.4 13.7 99 0.1 E 9 24 5 13 - - 2.8
28/06:00am 13.8 12.9 13.6 99 0.1 E 11 24 6 13 - - 2.6
28/05:30am 13.6 12.6 13.4 99 0.1 E 11 22 6 12 - - 2.4
28/05:00am 13.7 12.7 13.5 99 0.1 ESE 11 28 6 15 - - 2.4
28/04:30am 13.7 12.7 13.5 99 0.1 E 11 20 6 11 - - 2.4
28/04:00am 13.6 12.9 13.3 98 0.2 E 9 19 5 10 - - 2.0
28/03:30am 13.5 12.8 13.2 98 0.2 E 9 19 5 10 - - 1.8
28/03:00am 13.3 12.5 12.8 97 0.3 ESE 9 19 5 10 - - 1.6
28/02:30am 13.6 13.3 13.3 98 0.2 ESE 7 17 4 9 - - 1.4
28/02:13am 13.5 12.7 13.0 97 0.3 ESE 9 17 5 9 - - 1.4
28/02:00am 13.5 12.7 13.0 97 0.3 ESE 9 15 5 8 - - 1.4
28/01:30am 13.6 12.9 13.1 97 0.3 ESE 9 17 5 9 - - 1.4
28/01:24am 13.6 12.9 13.3 98 0.2 ESE 9 17 5 9 - - 1.4
28/01:00am 13.7 12.7 13.4 98 0.2 ESE 11 24 6 13 - - 1.4
28/12:30am 13.6 12.2 13.3 98 0.2 ESE 13 24 7 13 - - 1.4
28/12:00am 13.5 12.7 13.0 97 0.3 ESE 9 24 5 13 - - 1.4
 
Date/Time
EDT
Temp
°C
App
Temp
°C
Dew
Point
°C
Rel
Hum
%
Delta-T
°C
Wind Press
QNH
hPa
Press
MSL
hPa
Rain since
9am
mm
Dir  Spd
km/h
Gust
km/h
Spd
kts
Gust
kts
27/11:51pm 13.5 12.3 12.9 96 0.3 ESE 11 24 6 13 - - 1.4
27/11:30pm 13.6 12.8 13.0 96 0.3 ESE 9 22 5 12 - - 1.4
27/11:27pm 13.6 12.5 13.0 96 0.3 ESE 11 22 6 12 - - 1.4
27/11:10pm 13.6 12.8 12.8 95 0.5 ESE 9 19 5 10 - - 1.4
27/11:00pm 13.5 12.2 12.6 94 0.5 E 11 22 6 12 - - 1.4
27/10:30pm 13.5 12.3 12.7 95 0.5 ESE 11 20 6 11 - - 1.4
27/10:00pm 13.0 11.8 11.7 92 0.7 E 9 19 5 10 - - 1.4
27/09:38pm 13.0 11.7 11.4 90 0.9 E 9 15 5 8 - - 1.4
27/09:30pm 12.8 11.5 11.4 91 0.8 ESE 9 15 5 8 - - 1.4
27/09:00pm 12.7 11.4 11.1 90 0.9 E 9 13 5 7 - - 1.4
27/08:30pm 13.0 11.3 11.2 89 1.0 E 11 20 6 11 - - 1.4
27/08:00pm 13.4 12.1 11.1 86 1.3 E 9 17 5 9 - - 1.4
27/07:30pm 14.3 12.8 10.7 79 2.0 E 9 17 5 9 - - 1.4
27/07:00pm 16.2 14.8 10.9 71 3.0 E 9 20 5 11 - - 1.4
27/06:30pm 16.5 14.8 11.2 71 3.0 E 11 22 6 12 - - 1.4
27/06:00pm 17.1 15.8 12.4 74 2.7 ESE 11 22 6 12 - - 1.4
27/05:30pm 17.6 15.0 11.9 69 3.3 E 17 28 9 15 - - 1.4
27/05:00pm 19.2 17.9 13.6 70 3.4 E 13 20 7 11 - - 1.4
27/04:30pm 18.7 17.3 13.3 71 3.2 E 13 26 7 14 - - 1.4
27/04:00pm 19.1 18.4 13.3 69 3.5 E 9 19 5 10 - - 1.4
27/03:30pm 19.2 17.2 12.7 66 3.8 E 15 26 8 14 - - 1.4
27/03:00pm 19.4 18.2 12.9 66 3.9 E 11 19 6 10 - - 1.4
27/02:30pm 19.7 18.9 14.1 70 3.4 E 11 24 6 13 - - 1.4
27/02:00pm 20.2 20.5 15.0 72 3.2 E 7 17 4 9 - - 1.4
27/01:30pm 18.6 17.9 14.3 76 2.6 E 11 24 6 13 - - 1.4
27/01:17pm 17.7 16.8 13.6 77 2.4 E 11 20 6 11 - - 1.4
27/01:00pm 16.4 15.9 13.9 85 1.5 E 9 20 5 11 - - 1.4
27/12:30pm 16.6 16.6 14.2 86 1.4 E 7 17 4 9 - - 1.4
27/12:00pm 16.8 16.6 14.6 87 1.3 E 9 19 5 10 - - 1.2
27/11:30am 15.1 14.9 14.8 98 0.2 E 9 20 5 11 - - 1.2
27/11:14am 14.4 13.6 14.1 98 0.2 E 11 22 6 12 - - 1.2
27/11:00am 13.9 13.3 13.6 98 0.2 E 9 19 5 10 - - 1.2
27/10:30am 13.9 13.0 13.7 99 0.1 E 11 17 6 9 - - 1.2
27/10:00am 13.7 12.7 13.5 99 0.1 E 11 22 6 12 - - 1.0
27/09:30am 13.6 12.6 13.4 99 0.1 E 11 22 6 12 - - 0.2
27/09:00am 13.5 12.8 13.3 99 0.1 E 9 20 5 11 - - 9.8
27/08:30am 13.3 12.6 13.1 99 0.1 E 9 24 5 13 - - 9.2
27/08:00am 13.0 11.8 12.8 99 0.1 E 11 20 6 11 - - 8.8
27/07:30am 13.0 11.8 12.8 99 0.1 ENE 11 24 6 13 - - 8.4
27/07:00am 13.0 11.8 12.8 99 0.1 E 11 24 6 13 - - 8.2
27/06:30am 13.1 11.9 12.9 99 0.1 E 11 22 6 12 - - 7.8
27/06:00am 13.1 11.5 12.9 99 0.1 E 13 30 7 16 - - 7.2
27/05:30am 12.9 11.3 12.7 99 0.1 E 13 30 7 16 - - 5.8
27/05:00am 13.0 12.2 12.8 99 0.1 E 9 17 5 9 - - 3.6
27/04:30am 12.7 12.2 12.5 99 0.1 ESE 7 11 4 6 - - 1.4
27/04:00am 12.5 12.1 12.3 99 0.1 ESE 6 11 3 6 - - 1.0
27/03:30am 12.4 11.4 12.2 99 0.1 ESE 9 22 5 12 - - 0.6
27/03:00am 12.3 10.5 12.1 99 0.1 ESE 13 20 7 11 - - 0.6
27/02:30am 12.2 11.1 11.9 98 0.2 ESE 9 20 5 11 - - 0.6
27/02:00am 11.9 10.7 11.6 98 0.2 ESE 9 17 5 9 - - 0.4
27/01:30am 11.6 10.3 11.3 98 0.2 SE 9 15 5 8 - - 0.0
27/01:00am 11.3 9.9 10.8 97 0.3 SSE 9 17 5 9 - - 0.0
27/12:40am 11.3 9.8 10.5 95 0.4 ESE 9 19 5 10 - - 0.0
27/12:30am 11.1 9.5 10.2 94 0.5 SE 9 19 5 10 - - 0.0
27/12:23am 11.0 9.3 9.9 93 0.6 SE 9 19 5 10 - - 0.0
27/12:00am 11.1 10.0 9.9 92 0.6 SE 6 11 3 6 - - 0.0
 
Date/Time
EDT
Temp
°C
App
Temp
°C
Dew
Point
°C
Rel
Hum
%
Delta-T
°C
Wind Press
QNH
hPa
Press
MSL
hPa
Rain since
9am
mm
Dir  Spd
km/h
Gust
km/h
Spd
kts
Gust
kts
26/11:54pm 11.0 9.2 9.4 90 0.9 SSE 9 19 5 10 - - 0.0
26/11:44pm 11.2 8.6 9.5 89 0.9 ESE 13 20 7 11 - - 0.0
26/11:38pm 11.3 9.1 9.4 88 1.0 ESE 11 17 6 9 - - 0.0
26/11:30pm 11.3 8.7 9.4 88 1.0 ESE 13 22 7 12 - - 0.0
26/11:00pm 10.9 9.1 9.3 90 0.8 ESE 9 19 5 10 - - 0.0
26/10:57pm 10.8 8.9 9.2 90 0.8 ESE 9 17 5 9 - - 0.0
26/10:39pm 10.8 8.9 9.2 90 0.8 E 9 17 5 9 - - 0.0
26/10:30pm 11.1 9.3 9.5 90 0.9 ESE 9 17 5 9 - - 0.0
26/10:00pm 11.7 9.8 10.4 92 0.7 E 11 19 6 10 - - 0.0
26/09:30pm 11.9 10.7 10.3 90 0.9 ESE 7 13 4 7 - - 0.0
26/09:00pm 12.5 11.4 10.7 89 1.0 E 7 13 4 7 - - 0.0
26/08:30pm 12.8 11.3 10.7 87 1.2 E 9 17 5 9 - - 0.0
26/08:00pm 13.0 11.5 10.5 85 1.4 E 9 19 5 10 - - 0.0
26/07:30pm 13.3 11.8 10.7 84 1.4 E 9 22 5 12 - - 0.0
26/07:00pm 14.0 12.3 11.2 83 1.6 E 11 20 6 11 - - 0.0
26/06:30pm 14.7 13.9 11.7 82 1.7 E 7 15 4 8 - - 0.0
26/06:22pm 14.8 13.2 11.4 80 1.9 E 11 19 6 10 - - 0.0
26/06:19pm 14.9 13.3 11.5 80 1.9 E 11 19 6 10 - - 0.0
26/06:09pm 15.6 14.2 12.2 80 2.0 E 11 20 6 11 - - 0.0
26/06:00pm 15.1 13.7 12.1 82 1.7 E 11 19 6 10 - - 0.0
26/05:30pm 15.1 13.5 11.7 80 1.9 ESE 11 22 6 12 - - 0.0
26/05:13pm 15.9 14.6 12.6 81 1.9 E 11 24 6 13 - - 0.0
26/05:00pm 15.1 13.4 12.4 84 1.6 E 13 24 7 13 - - 0.0
26/04:33pm 14.9 13.7 11.7 81 1.8 E 9 17 5 9 - - 0.0
26/04:30pm 15.6 14.2 12.2 80 2.0 E 11 19 6 10 - - 0.0
26/04:00pm 16.6 15.6 12.4 76 2.4 E 9 17 5 9 - - 0.0
26/03:46pm 16.1 14.2 11.7 75 2.5 E 13 19 7 10 - - 0.0
26/03:30pm 15.8 14.4 12.2 79 2.1 E 11 19 6 10 - - 0.0
26/03:00pm 15.9 14.2 11.3 74 2.6 ENE 11 17 6 9 - - 0.0
26/02:58pm 16.2 15.0 11.6 74 2.6 ENE 9 17 5 9 - - 0.0
26/02:45pm 17.2 16.1 12.1 72 3.0 ENE 9 19 5 10 - - 0.0
26/02:30pm 16.7 15.2 11.8 73 2.8 ENE 11 20 6 11 - - 0.0
26/02:00pm 16.7 15.9 11.8 73 2.8 E 7 19 4 10 - - 0.0
26/01:55pm 16.3 14.7 11.5 73 2.7 E 11 19 6 10 - - 0.0
26/01:30pm 15.4 14.0 12.2 81 1.8 ENE 11 19 6 10 - - 0.0
26/01:21pm 14.5 12.9 11.7 83 1.6 E 11 19 6 10 - - 0.0
26/01:00pm 13.1 11.4 11.3 89 1.0 E 11 22 6 12 - - 0.0
26/12:50pm 13.2 11.0 10.9 86 1.3 ESE 13 26 7 14 - - 0.0
26/12:30pm 16.1 15.2 12.7 80 2.0 ENE 9 19 5 10 - - 0.0
26/12:02pm 15.0 14.0 12.3 84 1.6 E 9 17 5 9 - - 0.0
26/12:00pm 14.9 13.9 12.2 84 1.6 E 9 17 5 9 - - 0.0
26/11:48am 14.8 13.8 12.3 85 1.4 E 9 20 5 11 - - 0.0
26/11:30am 13.0 11.7 11.2 89 1.0 E 9 17 5 9 - - 0.0
26/11:00am 13.5 11.9 11.7 89 1.0 E 11 24 6 13 - - 0.0
26/10:30am 13.2 11.7 11.8 91 0.8 E 11 22 6 12 - - 0.0
26/10:00am 12.6 11.0 11.5 93 0.6 E 11 24 6 13 - - 0.0
26/09:30am 12.7 10.9 12.2 97 0.3 E 13 26 7 14 - - 0.0
26/09:00am 11.9 9.9 11.6 98 0.2 E 13 30 7 16 - - 14.6
26/08:30am 11.9 10.7 11.7 99 0.1 ESE 9 20 5 11 - - 14.6
26/08:12am 11.6 9.9 11.3 98 0.2 ESE 11 19 6 10 - - 14.4
26/08:00am 11.3 9.5 11.0 98 0.2 E 11 22 6 12 - - 14.4
26/07:30am 11.6 9.6 11.4 99 0.1 E 13 24 7 13 - - 13.8
26/07:00am 11.9 11.1 11.7 99 0.1 E 7 15 4 8 - - 12.8
26/06:30am 11.8 10.2 11.6 99 0.1 E 11 24 6 13 - - 11.2
26/06:00am 11.6 9.2 11.3 98 0.2 E 15 37 8 20 - - 11.0
26/05:30am 12.3 10.5 12.1 99 0.1 E 13 24 7 13 - - 10.6
26/05:00am 12.6 11.3 12.4 99 0.1 E 11 28 6 15 - - 9.0
26/04:30am 12.6 10.9 12.3 98 0.2 E 13 30 7 16 - - 8.4
26/04:00am 12.8 11.1 12.5 98 0.2 E 13 24 7 13 - - 7.6
26/03:30am 13.1 12.9 12.9 99 0.1 E 6 9 3 5 - - 6.2
26/03:00am 13.1 12.7 12.9 99 0.1 ESE 7 13 4 7 - - 5.2
26/02:30am 13.2 12.8 13.0 99 0.1 ESE 7 13 4 7 - - 5.0
26/02:00am 13.1 12.7 12.9 99 0.1 ESE 7 17 4 9 - - 4.8
26/01:30am 13.2 13.0 13.0 99 0.1 E 6 13 3 7 - - 4.4
26/01:00am 13.3 13.1 13.1 99 0.1 ESE 6 11 3 6 - - 3.8
26/12:30am 13.2 12.4 13.0 99 0.1 E 9 15 5 8 - - 3.8
26/12:00am 13.2 12.4 13.0 99 0.1 ESE 9 13 5 7 - - 3.6
 
Date/Time
EDT
Temp
°C
App
Temp
°C
Dew
Point
°C
Rel
Hum
%
Delta-T
°C
Wind Press
QNH
hPa
Press
MSL
hPa
Rain since
9am
mm
Dir  Spd
km/h
Gust
km/h
Spd
kts
Gust
kts
25/11:30pm 13.2 12.8 13.0 99 0.1 ESE 7 17 4 9 - - 3.4
25/11:00pm 13.1 12.7 12.9 99 0.1 SE 7 15 4 8 - - 3.0
25/10:30pm 13.1 12.3 12.9 99 0.1 E 9 15 5 8 - - 3.0
25/10:00pm 13.1 11.9 12.9 99 0.1 ESE 11 22 6 12 - - 2.8
25/09:30pm 13.1 11.9 12.9 99 0.1 E 11 24 6 13 - - 2.8
25/09:00pm 13.1 12.3 12.8 98 0.2 ESE 9 19 5 10 - - 2.8
25/08:30pm 13.0 12.1 12.7 98 0.2 E 9 19 5 10 - - 2.8
25/08:00pm 13.1 11.9 12.8 98 0.2 E 11 20 6 11 - - 2.4
25/07:30pm 13.3 12.5 13.0 98 0.2 E 9 20 5 11 - - 2.2
25/07:00pm 13.3 12.5 13.0 98 0.2 E 9 24 5 13 - - 2.0
25/06:30pm 13.3 12.5 13.0 98 0.2 E 9 20 5 11 - - 1.8
25/06:00pm 13.5 12.8 13.2 98 0.2 E 9 20 5 11 - - 1.6
25/05:30pm 13.5 12.7 12.9 96 0.3 E 9 19 5 10 - - 1.6
25/05:00pm 13.8 12.7 13.0 95 0.5 E 11 19 6 10 - - 1.4
25/04:30pm 14.5 13.6 13.7 95 0.5 E 11 22 6 12 - - 1.4
25/04:00pm 14.1 13.4 13.3 95 0.5 E 9 17 5 9 - - 1.4
25/03:30pm 14.7 13.9 13.9 95 0.5 E 11 19 6 10 - - 1.4
25/03:00pm 14.7 13.8 13.7 94 0.6 E 11 19 6 10 - - 1.4
25/02:30pm 14.8 14.7 13.8 94 0.6 ESE 7 19 4 10 - - 1.4

Latest Capital City Observations: Canberra | Sydney | Melbourne | Brisbane | Adelaide | Perth | Hobart | Darwin

Other Formats:

Comma delimited format used in spreadsheet applications
http://www.bom.gov.au/fwo/IDN60901/IDN60901.94743.axf

JavaScript Object Notation format (JSON) in row-major order
http://www.bom.gov.au/fwo/IDN60901/IDN60901.94743.json